TimeEST,TemperatureF,Dew PointF,Humidity,Sea Level PressureIn,VisibilityMPH,Wind Direction,Wind SpeedMPH,Gust SpeedMPH,PrecipitationIn,Events,Conditions,WindDirDegrees,DateUTC
12:15 AM,34.5,30.2,84,29.66,10.0,SW,12.7,19.6,N/A,,Overcast,220,2013-02-28 05:15:00
12:55 AM,34.7,29.8,82,29.66,10.0,WSW,13.8,20.7,N/A,,Overcast,240,2013-02-28 05:55:00
1:15 AM,34.5,29.7,82,29.66,10.0,SW,11.5,-,N/A,,Overcast,230,2013-02-28 06:15:00
1:35 AM,34.3,29.5,82,29.66,10.0,WSW,12.7,-,N/A,,Overcast,240,2013-02-28 06:35:00
1:55 AM,34.3,29.1,81,29.67,10.0,WSW,10.4,-,N/A,,Overcast,240,2013-02-28 06:55:00
2:15 AM,34.3,29.3,82,29.66,10.0,WSW,10.4,-,N/A,,Overcast,240,2013-02-28 07:15:00
2:35 AM,34.2,29.3,82,29.66,10.0,SW,8.1,-,N/A,,Overcast,230,2013-02-28 07:35:00
2:55 AM,34.0,29.7,84,29.65,5.0,SW,11.5,16.1,N/A,Snow,Light Snow,220,2013-02-28 07:55:00
3:15 AM,33.8,29.5,84,29.65,5.0,WSW,11.5,20.7,N/A,Snow,Light Snow,240,2013-02-28 08:15:00
3:35 AM,33.4,28.9,84,29.65,7.0,WSW,13.8,-,N/A,,Overcast,250,2013-02-28 08:35:00
3:55 AM,33.3,29.1,85,29.65,4.0,WSW,10.4,-,N/A,Snow,Light Snow,240,2013-02-28 08:55:00
4:15 AM,33.1,29.3,86,29.65,2.5,WSW,9.2,-,N/A,Snow,Light Snow,240,2013-02-28 09:15:00
4:55 AM,32.5,29.3,88,29.65,2.5,SW,9.2,-,N/A,Snow,Light Snow,230,2013-02-28 09:55:00
5:15 AM,32.9,29.1,86,29.65,10.0,SW,15.0,18.4,N/A,,Overcast,230,2013-02-28 10:15:00
5:35 AM,33.3,28.8,84,29.66,10.0,SW,12.7,-,N/A,,Overcast,230,2013-02-28 10:35:00
5:55 AM,33.4,28.8,83,29.66,10.0,WSW,13.8,18.4,N/A,,Overcast,240,2013-02-28 10:55:00
6:15 AM,33.4,28.4,82,29.66,10.0,SW,12.7,-,N/A,,Overcast,230,2013-02-28 11:15:00
6:35 AM,33.4,28.8,83,29.66,10.0,SW,11.5,16.1,N/A,,Overcast,230,2013-02-28 11:35:00
6:55 AM,33.3,28.9,84,29.66,3.0,SW,13.8,19.6,N/A,Snow,Light Snow,230,2013-02-28 11:55:00
7:15 AM,33.1,29.1,85,29.67,3.0,SW,11.5,-,N/A,Snow,Light Snow,230,2013-02-28 12:15:00
7:35 AM,32.9,29.1,86,29.67,4.0,SW,10.4,-,N/A,Snow,Light Snow,230,2013-02-28 12:35:00
7:55 AM,32.9,29.3,87,29.67,4.0,SW,11.5,-,N/A,Snow,Light Snow,230,2013-02-28 12:55:00
8:15 AM,32.9,29.3,87,29.68,7.0,WSW,13.8,-,N/A,Snow,Light Snow,240,2013-02-28 13:15:00
8:35 AM,33.3,29.3,85,29.68,7.0,WSW,13.8,19.6,N/A,Snow,Light Snow,240,2013-02-28 13:35:00
8:55 AM,33.4,29.3,85,29.69,5.0,WSW,16.1,21.9,N/A,Snow,Light Snow,240,2013-02-28 13:55:00
9:15 AM,33.8,29.5,84,29.69,7.0,WSW,13.8,18.4,N/A,Snow,Light Snow,240,2013-02-28 14:15:00
9:35 AM,33.8,29.7,85,29.69,7.0,WSW,13.8,18.4,N/A,,Overcast,240,2013-02-28 14:35:00
9:55 AM,33.8,30.0,86,29.70,2.5,WSW,12.7,18.4,N/A,Snow,Light Snow,240,2013-02-28 14:55:00
10:15 AM,33.8,30.0,86,29.70,5.0,WSW,11.5,19.6,N/A,,Overcast,250,2013-02-28 15:15:00
10:35 AM,34.0,30.2,86,29.70,4.0,WSW,11.5,-,N/A,,Overcast,250,2013-02-28 15:35:00
10:55 AM,34.3,30.6,86,29.70,4.0,WSW,11.5,-,N/A,Snow,Light Snow,250,2013-02-28 15:55:00
11:15 AM,35.1,31.3,86,29.71,5.0,WSW,13.8,-,N/A,Snow,Light Snow,250,2013-02-28 16:15:00
11:35 AM,36.1,32.0,85,29.71,7.0,West,13.8,-,N/A,Rain,Light Rain,260,2013-02-28 16:35:00
11:55 AM,36.7,32.2,84,29.72,10.0,West,16.1,-,N/A,Rain,Light Rain,260,2013-02-28 16:55:00
12:15 PM,37.4,32.4,82,29.72,10.0,West,17.3,23.0,N/A,Rain,Light Rain,270,2013-02-28 17:15:00
12:55 PM,38.3,33.4,83,29.72,10.0,West,13.8,-,N/A,Rain,Light Rain,270,2013-02-28 17:55:00
1:15 PM,38.7,32.9,80,29.73,10.0,West,13.8,19.6,N/A,,Overcast,280,2013-02-28 18:15:00
1:35 PM,38.7,32.4,78,29.73,10.0,WNW,16.1,21.9,N/A,,Overcast,290,2013-02-28 18:35:00
1:55 PM,38.7,32.0,77,29.73,10.0,NW,12.7,19.6,N/A,,Overcast,310,2013-02-28 18:55:00
2:15 PM,39.0,31.8,75,29.74,10.0,West,13.8,18.4,N/A,,Overcast,280,2013-02-28 19:15:00
2:35 PM,38.7,31.6,76,29.74,10.0,WNW,13.8,20.7,N/A,,Overcast,290,2013-02-28 19:35:00
2:55 PM,38.7,31.6,76,29.75,10.0,WNW,12.7,17.3,N/A,,Overcast,290,2013-02-28 19:55:00
3:15 PM,38.8,31.6,75,29.76,10.0,WNW,11.5,17.3,N/A,,Overcast,290,2013-02-28 20:15:00
3:35 PM,38.5,31.6,76,29.76,7.0,WNW,13.8,18.4,N/A,,Overcast,300,2013-02-28 20:35:00
3:55 PM,38.5,31.8,77,29.77,10.0,NW,8.1,-,N/A,,Overcast,310,2013-02-28 20:55:00
4:15 PM,38.7,32.0,77,29.78,10.0,NW,11.5,17.3,N/A,,Overcast,310,2013-02-28 21:15:00
4:35 PM,38.5,31.8,77,29.78,10.0,WNW,10.4,-,N/A,,Overcast,290,2013-02-28 21:35:00
4:55 PM,37.9,32.0,79,29.80,4.0,WNW,11.5,-,N/A,,Haze,290,2013-02-28 21:55:00
5:15 PM,37.4,32.2,81,29.81,7.0,WNW,10.4,-,N/A,,Overcast,290,2013-02-28 22:15:00
5:35 PM,37.6,32.2,81,29.81,10.0,West,8.1,-,N/A,,Overcast,270,2013-02-28 22:35:00
5:55 PM,37.6,32.0,80,29.83,4.0,West,11.5,-,N/A,Rain,Light Rain,280,2013-02-28 22:55:00
6:15 PM,36.7,32.0,83,29.84,7.0,West,6.9,-,N/A,,Overcast,270,2013-02-28 23:15:00
6:35 PM,36.0,32.0,86,29.84,10.0,West,6.9,-,N/A,,Overcast,270,2013-02-28 23:35:00
7:15 PM,36.5,32.0,84,29.86,10.0,West,11.5,-,N/A,,Overcast,280,2013-03-01 00:15:00
7:35 PM,36.1,32.0,85,29.87,10.0,West,8.1,-,N/A,,Overcast,280,2013-03-01 00:35:00
7:55 PM,36.0,32.0,86,29.88,10.0,West,9.2,-,N/A,,Overcast,280,2013-03-01 00:55:00
8:15 PM,35.6,31.8,86,29.88,10.0,WNW,8.1,-,N/A,,Overcast,300,2013-03-01 01:15:00
8:35 PM,35.8,31.6,85,29.88,10.0,WNW,6.9,-,N/A,,Overcast,300,2013-03-01 01:35:00
8:55 PM,36.0,31.8,85,29.88,10.0,WNW,6.9,-,N/A,,Overcast,300,2013-03-01 01:55:00
9:15 PM,36.0,31.6,84,29.88,10.0,WNW,6.9,-,N/A,,Overcast,300,2013-03-01 02:15:00
9:35 PM,36.0,31.5,84,29.88,10.0,NW,4.6,-,N/A,,Overcast,310,2013-03-01 02:35:00
9:55 PM,36.0,30.9,82,29.90,10.0,NNW,9.2,-,N/A,,Overcast,330,2013-03-01 02:55:00
10:15 PM,36.7,29.7,76,29.90,10.0,NNW,9.2,-,N/A,,Overcast,340,2013-03-01 03:15:00
10:35 PM,36.5,28.9,74,29.90,10.0,NW,8.1,-,N/A,,Overcast,320,2013-03-01 03:35:00
10:55 PM,36.1,29.1,76,29.90,10.0,NNW,6.9,-,N/A,,Overcast,330,2013-03-01 03:55:00
11:15 PM,36.1,29.3,76,29.90,10.0,NNW,5.8,-,N/A,,Overcast,330,2013-03-01 04:15:00
11:35 PM,36.0,29.5,77,29.90,10.0,NW,4.6,-,N/A,,Overcast,310,2013-03-01 04:35:00